This demonstration page uses our WeatherBlox Daily Observations layout. Learn more.

Left ArrowRight Arrow

Hourly Observations for April 1, 2015

Temp ( °F °C ) Dew Point ( °F °C ) Humidity (%) Winds ( mph kmh ) Pressure ( in mb ) Visibility ( mi km ) Precip ( " mm )
12:53 am 00:53 Mostly Clear 47 8.3 28 -2.2 48 48 WNW 21 33 29.64 1004 10 16 N/A
1:53 am 01:53 Mostly Clear 47 8.3 23 -5 39 39 W 28 44 29.64 1004 10 16 N/A
2:53 am 02:53 Clear 46 7.8 22 -5.6 38 38 W 25 41 29.66 1005 10 16 N/A
3:53 am 03:53 Clear 44 6.7 24 -4.4 45 45 W 22 35 29.67 1005 10 16 N/A
4:53 am 04:53 Clear 43 6.1 25 -3.9 49 49 W 25 41 29.69 1005 10 16 N/A
5:53 am 05:53 Mostly Cloudy 40 4.4 31 -0.6 70 70 WNW 20 31 29.74 1007 10 16 N/A
6:53 am 06:53 Clear 37 2.8 31 -0.6 79 79 WNW 20 31 29.77 1008 10 16 N/A
7:53 am 07:53 Mostly Cloudy 37 2.8 32 undefined 82 82 WNW 17 28 29.80 1009 10 16 N/A
8:53 am 08:53 Cloudy 37 3 32 undefined 81 81 NW 8 13 29.85 1011 10 16 N/A
9:08 am 09:08 Cloudy with Light Rain 37 3 34 1 87 87 W 8 13 29.85 1011 10 16 N/A
9:31 am 09:31 Cloudy with Light Rain 37 2.8 33 0.6 86 86 W 10 17 29.88 1012 10 16 N/A
9:53 am 09:53 Cloudy 38 3.3 33 0.6 83 83 W 12 19 29.83 1010 10 16 N/A
10:22 am 10:22 Cloudy 37 3 34 1 87 87 NW 9 15 29.88 1012 10 16 N/A
10:53 am 10:53 Cloudy 41 5 32 undefined 70 70 NW 7 11 29.84 1011 10 16 N/A
11:38 am 11:38 Mostly Cloudy 45 7 32 undefined 61 61 SW 8 13 29.83 1010 10 16 N/A
11:53 am 11:53 Mostly Cloudy 46 7.8 30 -1.1 54 54 WSW 13 20 29.80 1009 10 16 N/A
12:39 pm 12:39 Mostly Cloudy 44 6.7 28 -2.2 53 53 WNW 36 57 29.80 1009 10 16 N/A
12:53 pm 12:53 Mostly Cloudy with Light Rain 39 3.9 32 undefined 76 76 WNW 9 15 29.81 1009 7 11 N/A
1:53 pm 13:53 Cloudy 49 9.4 19 -7.2 31 31 W 17 28 29.76 1008 10 16 N/A
2:53 pm 14:53 Mostly Cloudy 50 10 15 -9.4 25 25 WNW 25 41 29.75 1008 10 16 N/A
3:53 pm 15:53 Mostly Cloudy 51 10.6 14 -10 23 23 WNW 31 50 29.75 1007 10 16 N/A
4:53 pm 16:53 Partly Cloudy 51 10.6 14 -10 23 23 W 32 52 29.75 1007 10 16 N/A
5:53 pm 17:53 Sunny 72 22 30 -1 22 22 NW 21 33 29.35 994 10 16 N/A
6:53 pm 18:53 Cloudy 48 8.9 16 -8.9 28 28 W 30 48 29.78 1008 10 16 N/A
7:41 pm 19:41 Cloudy 43 6.1 24 -4.4 47 47 NNW 31 50 29.80 1009 10 16 N/A
7:53 pm 19:53 Cloudy 41 5 25 -3.9 53 53 NNW 26 43 29.83 1010 10 16 N/A
8:53 pm 20:53 Mostly Cloudy 39 3.9 26 -3.3 60 60 NW 25 41 29.88 1012 10 16 N/A
9:53 pm 21:53 Partly Cloudy 38 3.3 27 -2.8 65 65 WNW 23 37 29.90 1013 10 16 N/A
10:53 pm 22:53 Partly Cloudy 37 2.8 26 -3.3 65 65 WNW 29 46 29.90 1013 10 16 N/A
11:53 pm 23:53 Clear 34 1.1 27 -2.8 76 76 NW 25 41 29.93 1013 10 16 N/A

Powered by AerisWeather